Time,TemperatureF,DewpointF,PressureIn,WindDirection,WindDirectionDegrees,WindSpeedMPH,WindSpeedGustMPH,Humidity,HourlyPrecipIn,Conditions,Clouds,dailyrainin,SoftwareType,DateUTC
2013-06-19 00:01:00,65.9,58.9,29.56,NE,45,0.0,1.0,78,0.00,,OVC090,0.00,VWS V14.01,2013-06-19 04:01:00,
2013-06-19 00:06:00,65.8,58.8,29.56,NE,45,0.0,4.0,78,0.00,,CLR,0.00,VWS V14.01,2013-06-19 04:06:00,
2013-06-19 00:11:00,65.6,58.6,29.57,NE,45,0.0,4.0,78,0.00,,CLR,0.00,VWS V14.01,2013-06-19 04:11:00,
2013-06-19 00:16:00,65.4,58.4,29.56,NE,43,5.0,5.0,78,0.00,,CLR,0.00,VWS V14.01,2013-06-19 04:16:00,
2013-06-19 00:21:00,65.4,58.4,29.56,NE,34,0.0,8.0,78,0.00,,CLR,0.00,VWS V14.01,2013-06-19 04:21:00,
2013-06-19 00:26:00,65.2,58.2,29.57,NE,45,1.0,8.0,78,0.00,,CLR,0.00,VWS V14.01,2013-06-19 04:26:00,
2013-06-19 00:31:00,65.1,58.1,29.57,NE,45,0.0,0.0,78,0.00,,CLR,0.00,VWS V14.01,2013-06-19 04:31:00,
2013-06-19 00:36:00,65.0,58.0,29.57,NE,45,0.0,4.0,78,0.00,,CLR,0.00,VWS V14.01,2013-06-19 04:36:00,
2013-06-19 00:41:00,64.9,58.2,29.57,NE,45,0.0,4.0,79,0.00,,CLR,0.00,VWS V14.01,2013-06-19 04:41:00,
2013-06-19 00:46:00,64.8,58.1,29.57,NE,45,0.0,4.0,79,0.00,,CLR,0.00,VWS V14.01,2013-06-19 04:46:00,
2013-06-19 00:51:00,64.6,58.0,29.57,NE,47,0.0,4.0,79,0.00,,CLR,0.00,VWS V14.01,2013-06-19 04:51:00,
2013-06-19 00:56:00,64.3,58.0,29.56,NE,45,0.0,4.0,80,0.00,,CLR,0.00,VWS V14.01,2013-06-19 04:56:00,
2013-06-19 01:01:00,64.1,57.8,29.56,NE,45,0.0,4.0,80,0.00,,CLR,0.00,VWS V14.01,2013-06-19 05:01:00,
2013-06-19 01:06:00,64.0,57.7,29.57,NE,42,0.0,5.0,80,0.00,,CLR,0.00,VWS V14.01,2013-06-19 05:06:00,
2013-06-19 01:11:00,63.7,57.4,29.56,NE,40,0.0,5.0,80,0.00,,CLR,0.00,VWS V14.01,2013-06-19 05:11:00,
2013-06-19 01:16:00,63.6,57.3,29.56,ENE,59,2.0,5.0,80,0.00,,CLR,0.00,VWS V14.01,2013-06-19 05:16:00,
2013-06-19 01:21:00,63.5,56.9,29.57,NE,47,0.0,5.0,79,0.00,,CLR,0.00,VWS V14.01,2013-06-19 05:21:00,
2013-06-19 01:26:00,63.6,57.0,29.57,NE,40,3.0,6.0,79,0.00,,CLR,0.00,VWS V14.01,2013-06-19 05:26:00,
2013-06-19 01:31:00,63.6,56.6,29.57,NE,45,0.0,3.0,78,0.00,,CLR,0.00,VWS V14.01,2013-06-19 05:31:00,
2013-06-19 01:36:00,63.6,57.0,29.58,NE,45,0.0,3.0,79,0.00,,CLR,0.00,VWS V14.01,2013-06-19 05:36:00,
2013-06-19 01:41:00,63.5,56.9,29.57,NE,45,0.0,3.0,79,0.00,,CLR,0.00,VWS V14.01,2013-06-19 05:41:00,
2013-06-19 01:46:00,63.3,56.7,29.57,NE,45,0.0,3.0,79,0.00,,CLR,0.00,VWS V14.01,2013-06-19 05:46:00,
2013-06-19 01:51:00,63.1,56.8,29.58,NE,45,0.0,3.0,80,0.00,,CLR,0.00,VWS V14.01,2013-06-19 05:51:00,
2013-06-19 01:56:00,62.8,56.5,29.58,NE,45,0.0,3.0,80,0.00,,CLR,0.00,VWS V14.01,2013-06-19 05:56:00,
2013-06-19 02:01:00,62.5,56.6,29.58,NE,45,0.0,0.0,81,0.00,,CLR,0.00,VWS V14.01,2013-06-19 06:01:00,
2013-06-19 02:06:00,62.3,56.4,29.58,NE,45,0.0,2.0,81,0.00,,CLR,0.00,VWS V14.01,2013-06-19 06:06:00,
2013-06-19 02:11:00,62.1,56.2,29.58,NE,45,0.0,2.0,81,0.00,,CLR,0.00,VWS V14.01,2013-06-19 06:11:00,
2013-06-19 02:16:00,61.9,56.0,29.58,NE,45,0.0,2.0,81,0.00,,CLR,0.00,VWS V14.01,2013-06-19 06:16:00,
2013-06-19 02:21:00,61.7,55.5,29.58,NE,45,0.0,2.0,80,0.00,,CLR,0.00,VWS V14.01,2013-06-19 06:21:00,
2013-06-19 02:26:00,61.4,55.5,29.59,NE,45,0.0,2.0,81,0.00,,CLR,0.00,VWS V14.01,2013-06-19 06:26:00,
2013-06-19 02:31:00,61.2,55.7,29.59,NE,45,0.0,0.0,82,0.00,,CLR,0.00,VWS V14.01,2013-06-19 06:31:00,
2013-06-19 02:36:00,60.9,55.7,29.59,NE,45,0.0,0.0,83,0.00,,CLR,0.00,VWS V14.01,2013-06-19 06:36:00,
2013-06-19 02:41:00,60.6,55.8,29.59,NE,45,0.0,0.0,84,0.00,,CLR,0.00,VWS V14.01,2013-06-19 06:41:00,
2013-06-19 02:46:00,60.2,55.3,29.59,NE,45,0.0,0.0,84,0.00,,CLR,0.00,VWS V14.01,2013-06-19 06:46:00,
2013-06-19 02:51:00,59.9,55.7,29.59,NE,45,0.0,0.0,86,0.00,,CLR,0.00,VWS V14.01,2013-06-19 06:51:00,
2013-06-19 02:57:00,59.6,55.4,29.59,NE,45,0.0,0.0,86,0.00,,CLR,0.34,VWS V14.01,2013-06-19 06:57:00,
2013-06-19 03:02:00,59.3,55.1,29.59,NE,45,0.0,0.0,86,0.00,,BKN049,0.00,VWS V14.01,2013-06-19 07:02:00,
2013-06-19 03:07:00,59.0,55.1,29.60,NE,45,0.0,0.0,87,0.00,,BKN049,0.00,VWS V14.01,2013-06-19 07:07:00,
2013-06-19 03:12:00,58.7,54.8,29.60,NE,45,0.0,0.0,87,0.00,,BKN049,0.00,VWS V14.01,2013-06-19 07:12:00,
2013-06-19 03:17:00,58.4,54.9,29.59,NE,45,0.0,0.0,88,0.00,,BKN049,0.00,VWS V14.01,2013-06-19 07:17:00,
2013-06-19 03:22:00,58.2,54.7,29.59,NE,45,0.0,0.0,88,0.00,,BKN049,0.00,VWS V14.01,2013-06-19 07:22:00,
2013-06-19 03:27:00,58.0,54.8,29.59,NE,45,0.0,0.0,89,0.00,,BKN049,0.00,VWS V14.01,2013-06-19 07:27:00,
2013-06-19 03:32:00,57.8,54.6,29.59,NE,45,0.0,2.0,89,0.00,,BKN049,0.00,VWS V14.01,2013-06-19 07:32:00,
2013-06-19 03:37:00,57.8,54.6,29.60,NE,45,0.0,2.0,89,0.00,,BKN049,0.00,VWS V14.01,2013-06-19 07:37:00,
2013-06-19 03:42:00,57.8,54.3,29.59,NE,45,0.0,2.0,88,0.00,,BKN049,0.00,VWS V14.01,2013-06-19 07:42:00,
2013-06-19 03:47:00,57.8,53.7,29.60,NE,45,0.0,2.0,86,0.00,,BKN049,0.00,VWS V14.01,2013-06-19 07:47:00,
2013-06-19 03:52:00,57.9,53.7,29.60,NE,45,0.0,2.0,86,0.00,,BKN049,0.00,VWS V14.01,2013-06-19 07:52:00,
2013-06-19 03:57:00,57.8,53.7,29.60,NE,45,0.0,2.0,86,0.00,,BKN049,0.00,VWS V14.01,2013-06-19 07:57:00,
2013-06-19 04:02:00,57.8,53.3,29.60,NE,45,0.0,0.0,85,0.00,,OVC049,0.00,VWS V14.01,2013-06-19 08:02:00,
2013-06-19 04:07:00,57.8,53.3,29.60,NE,45,0.0,0.0,85,0.00,,OVC049,0.00,VWS V14.01,2013-06-19 08:07:00,
2013-06-19 04:12:00,57.7,53.5,29.60,NE,45,0.0,1.0,86,0.00,,OVC049,0.00,VWS V14.01,2013-06-19 08:12:00,
2013-06-19 04:17:00,57.6,53.5,29.60,NE,45,0.0,1.0,86,0.00,,OVC049,0.34,VWS V14.01,2013-06-19 08:17:00,
2013-06-19 04:22:00,57.4,53.6,29.60,NE,46,1.0,2.0,87,0.00,,OVC049,0.00,VWS V14.01,2013-06-19 08:22:00,
2013-06-19 04:27:00,57.3,53.2,29.60,NE,46,0.0,2.0,86,0.00,,OVC049,0.00,VWS V14.01,2013-06-19 08:27:00,
2013-06-19 04:32:00,57.3,53.2,29.60,NE,46,0.0,0.0,86,0.00,,OVC049,0.00,VWS V14.01,2013-06-19 08:32:00,
2013-06-19 04:37:00,57.1,53.0,29.60,NE,46,0.0,0.0,86,0.00,,OVC049,0.00,VWS V14.01,2013-06-19 08:37:00,
2013-06-19 04:42:00,56.9,53.1,29.61,NE,46,0.0,0.0,87,0.00,,OVC049,0.00,VWS V14.01,2013-06-19 08:42:00,
2013-06-19 04:47:00,56.7,52.9,29.61,NE,46,0.0,0.0,87,0.00,,OVC049,0.00,VWS V14.01,2013-06-19 08:47:00,
2013-06-19 04:52:00,56.5,52.7,29.61,NE,46,0.0,0.0,87,0.00,,OVC049,0.00,VWS V14.01,2013-06-19 08:52:00,
2013-06-19 04:57:00,56.2,52.7,29.61,NE,46,0.0,0.0,88,0.00,,OVC049,0.00,VWS V14.01,2013-06-19 08:57:00,
2013-06-19 05:02:00,56.0,52.5,29.61,NE,46,0.0,0.0,88,0.00,,BKN049,0.00,VWS V14.01,2013-06-19 09:02:00,
2013-06-19 05:07:00,55.8,52.6,29.61,NE,46,0.0,0.0,89,0.00,,BKN049,0.00,VWS V14.01,2013-06-19 09:07:00,
2013-06-19 05:12:00,55.6,52.4,29.61,NE,45,1.0,3.0,89,0.00,,BKN049,0.00,VWS V14.01,2013-06-19 09:12:00,
2013-06-19 05:17:00,55.5,52.0,29.61,NE,35,0.0,3.0,88,0.00,,BKN049,0.00,VWS V14.01,2013-06-19 09:17:00,
2013-06-19 05:22:00,55.5,52.0,29.61,NE,35,0.0,3.0,88,0.00,,BKN049,0.00,VWS V14.01,2013-06-19 09:22:00,
2013-06-19 05:27:00,55.3,51.8,29.61,NE,35,0.0,3.0,88,0.00,,BKN049,0.00,VWS V14.01,2013-06-19 09:27:00,
2013-06-19 05:32:00,55.1,51.6,29.62,NE,35,0.0,0.0,88,0.00,,BKN049,0.00,VWS V14.01,2013-06-19 09:32:00,
2013-06-19 05:37:00,55.0,51.5,29.62,NE,35,0.0,1.0,88,0.00,,BKN049,0.00,VWS V14.01,2013-06-19 09:37:00,
2013-06-19 05:42:00,55.0,51.5,29.62,NE,35,0.0,1.0,88,0.00,,BKN049,0.00,VWS V14.01,2013-06-19 09:42:00,
2013-06-19 05:47:00,54.9,51.4,29.62,NNE,32,0.0,3.0,88,0.00,,BKN049,0.00,VWS V14.01,2013-06-19 09:47:00,
2013-06-19 05:52:00,54.9,51.4,29.62,NNE,32,0.0,3.0,88,0.00,,BKN049,0.00,VWS V14.01,2013-06-19 09:52:00,
2013-06-19 05:57:00,54.8,51.0,29.62,NNE,32,0.0,3.0,87,0.00,,BKN049,0.00,VWS V14.01,2013-06-19 09:57:00,
2013-06-19 06:02:00,54.7,51.2,29.62,NNE,32,0.0,0.0,88,0.00,,CLR,0.00,VWS V14.01,2013-06-19 10:02:00,
2013-06-19 06:07:00,54.6,51.1,29.62,NNE,32,0.0,0.0,88,0.00,,CLR,0.00,VWS V14.01,2013-06-19 10:07:00,
2013-06-19 06:12:00,54.5,51.3,29.63,NNE,32,0.0,0.0,89,0.00,,CLR,0.00,VWS V14.01,2013-06-19 10:12:00,
2013-06-19 06:17:00,54.4,51.2,29.63,NNE,32,0.0,0.0,89,0.00,,CLR,0.00,VWS V14.01,2013-06-19 10:17:00,
2013-06-19 06:22:00,54.3,51.1,29.63,NNE,32,0.0,0.0,89,0.00,,CLR,0.00,VWS V14.01,2013-06-19 10:22:00,
2013-06-19 06:27:00,54.3,51.1,29.63,NNE,32,0.0,0.0,89,0.00,,CLR,0.00,VWS V14.01,2013-06-19 10:27:00,
2013-06-19 06:32:00,54.4,51.5,29.64,NNE,32,0.0,0.0,90,0.00,,CLR,0.00,VWS V14.01,2013-06-19 10:32:00,
2013-06-19 06:37:00,54.6,52.0,29.64,NNE,32,1.0,2.0,91,0.00,,CLR,0.00,VWS V14.01,2013-06-19 10:37:00,
2013-06-19 06:42:00,54.8,52.2,29.64,NNE,32,0.0,2.0,91,0.00,,CLR,0.00,VWS V14.01,2013-06-19 10:42:00,
2013-06-19 06:47:00,55.0,52.1,29.64,NNE,32,0.0,2.0,90,0.00,,CLR,0.00,VWS V14.01,2013-06-19 10:47:00,
2013-06-19 06:52:00,55.2,52.6,29.64,NNE,32,0.0,2.0,91,0.00,,CLR,0.00,VWS V14.01,2013-06-19 10:52:00,
2013-06-19 06:57:00,55.4,52.8,29.65,NNE,32,0.0,2.0,91,0.00,,CLR,0.00,VWS V14.01,2013-06-19 10:57:00,
2013-06-19 07:02:00,55.6,52.7,29.65,NNE,32,0.0,0.0,90,0.00,,CLR,0.00,VWS V14.01,2013-06-19 11:02:00,
2013-06-19 07:07:00,55.9,53.0,29.65,NNE,32,0.0,0.0,90,0.00,,CLR,0.00,VWS V14.01,2013-06-19 11:07:00,
2013-06-19 07:12:00,56.3,53.4,29.65,NNE,32,0.0,0.0,90,0.00,,CLR,0.00,VWS V14.01,2013-06-19 11:12:00,
2013-06-19 07:17:00,56.7,53.5,29.66,NNE,32,0.0,0.0,89,0.00,,CLR,0.00,VWS V14.01,2013-06-19 11:17:00,
2013-06-19 07:23:00,57.0,53.5,29.66,NNE,28,0.0,0.0,88,0.00,,CLR,0.00,VWS V14.01,2013-06-19 11:23:00,
2013-06-19 07:28:00,57.3,53.5,29.66,NNE,23,0.0,0.0,87,0.00,,CLR,0.00,VWS V14.01,2013-06-19 11:28:00,
2013-06-19 07:33:00,57.7,53.2,29.66,NNE,32,0.0,0.0,85,0.00,,CLR,0.00,VWS V14.01,2013-06-19 11:33:00,
2013-06-19 07:38:00,58.3,53.2,29.66,NNE,32,0.0,1.0,83,0.00,,CLR,0.00,VWS V14.01,2013-06-19 11:38:00,
2013-06-19 07:43:00,59.3,53.8,29.67,NNE,32,0.0,1.0,82,0.00,,CLR,0.00,VWS V14.01,2013-06-19 11:43:00,
2013-06-19 07:48:00,60.3,54.1,29.67,ESE,117,0.0,3.0,80,0.00,,CLR,0.00,VWS V14.01,2013-06-19 11:48:00,
2013-06-19 07:53:00,61.4,54.1,29.67,NE,45,3.0,5.0,77,0.00,,CLR,0.00,VWS V14.01,2013-06-19 11:53:00,
2013-06-19 07:58:00,62.4,54.8,29.67,NE,46,0.0,5.0,76,0.00,,CLR,0.00,VWS V14.01,2013-06-19 11:58:00,
2013-06-19 08:03:00,63.4,55.3,29.68,NE,46,0.0,3.0,75,0.00,,CLR,0.00,VWS V14.01,2013-06-19 12:03:00,
2013-06-19 08:08:00,64.4,55.9,29.68,South,183,0.0,4.0,74,0.00,,CLR,0.00,VWS V14.01,2013-06-19 12:08:00,
2013-06-19 08:13:00,65.5,56.2,29.68,South,184,2.0,4.0,72,0.00,,CLR,0.00,VWS V14.01,2013-06-19 12:13:00,
2013-06-19 08:18:00,66.3,56.2,29.68,South,184,0.0,4.0,70,0.00,,CLR,0.00,VWS V14.01,2013-06-19 12:18:00,
2013-06-19 08:23:00,67.0,56.9,29.68,South,184,0.0,4.0,70,0.00,,CLR,0.00,VWS V14.01,2013-06-19 12:23:00,
2013-06-19 08:28:00,67.7,56.8,29.68,ESE,119,3.0,6.0,68,0.00,,CLR,0.00,VWS V14.01,2013-06-19 12:28:00,
2013-06-19 08:33:00,68.2,56.8,29.68,ESE,120,2.0,5.0,67,0.00,,CLR,0.00,VWS V14.01,2013-06-19 12:33:00,
2013-06-19 08:38:00,68.5,56.7,29.68,ESE,116,3.0,5.0,66,0.00,,CLR,0.00,VWS V14.01,2013-06-19 12:38:00,
2013-06-19 08:43:00,68.8,57.4,29.69,SSE,151,0.0,5.0,67,0.00,,CLR,0.00,VWS V14.01,2013-06-19 12:43:00,
2013-06-19 08:48:00,69.1,57.7,29.69,ESE,121,3.0,7.0,67,0.00,,CLR,0.00,VWS V14.01,2013-06-19 12:48:00,
2013-06-19 08:53:00,69.6,58.2,29.69,SE,141,2.0,7.0,67,0.00,,CLR,0.00,VWS V14.01,2013-06-19 12:53:00,
2013-06-19 08:58:00,70.2,58.7,29.70,SE,141,0.0,7.0,67,0.00,,CLR,0.00,VWS V14.01,2013-06-19 12:58:00,
2013-06-19 09:03:00,70.8,58.5,29.70,South,175,1.0,6.0,65,0.00,,CLR,0.00,VWS V14.01,2013-06-19 13:03:00,
2013-06-19 09:08:00,71.3,58.9,29.70,SE,137,2.0,6.0,65,0.00,,CLR,0.00,VWS V14.01,2013-06-19 13:08:00,
2013-06-19 09:13:00,71.7,58.5,29.70,SE,144,0.0,6.0,63,0.00,,CLR,0.00,VWS V14.01,2013-06-19 13:13:00,
2013-06-19 09:18:00,72.0,59.2,29.70,SE,144,2.0,6.0,64,0.00,,CLR,0.00,VWS V14.01,2013-06-19 13:18:00,
2013-06-19 09:23:00,72.5,59.2,29.70,East,82,0.0,6.0,63,0.00,,CLR,0.00,VWS V14.01,2013-06-19 13:23:00,
2013-06-19 09:28:00,72.8,59.5,29.71,South,171,3.0,6.0,63,0.00,,CLR,0.00,VWS V14.01,2013-06-19 13:28:00,
2013-06-19 09:33:00,73.2,59.4,29.71,South,171,1.0,4.0,62,0.00,,CLR,0.00,VWS V14.01,2013-06-19 13:33:00,
2013-06-19 09:38:00,73.5,59.7,29.71,East,98,1.0,4.0,62,0.00,,CLR,0.00,VWS V14.01,2013-06-19 13:38:00,
2013-06-19 09:43:00,73.8,60.0,29.70,South,175,2.0,4.0,62,0.00,,CLR,0.00,VWS V14.01,2013-06-19 13:43:00,
2013-06-19 09:48:00,74.2,59.9,29.71,South,175,3.0,4.0,61,0.00,,CLR,0.34,VWS V14.01,2013-06-19 13:48:00,
2013-06-19 09:53:00,74.0,58.3,29.71,NNE,26,2.0,6.0,58,0.00,,CLR,0.00,VWS V14.01,2013-06-19 13:53:00,
2013-06-19 09:58:00,73.6,58.9,29.71,ESE,111,2.0,6.0,60,0.00,,CLR,0.00,VWS V14.01,2013-06-19 13:58:00,
2013-06-19 10:03:00,73.3,58.1,29.71,NE,45,4.0,7.0,59,0.00,,CLR,0.00,VWS V14.01,2013-06-19 14:03:00,
2013-06-19 10:08:00,73.2,58.5,29.71,NE,43,2.0,7.0,60,0.00,,CLR,0.00,VWS V14.01,2013-06-19 14:08:00,
2013-06-19 10:13:00,73.5,57.8,29.71,NE,51,4.0,7.0,58,0.00,,CLR,0.00,VWS V14.01,2013-06-19 14:13:00,
2013-06-19 10:18:00,73.2,56.1,29.72,NE,46,2.0,9.0,55,0.00,,CLR,0.00,VWS V14.01,2013-06-19 14:18:00,
2013-06-19 10:23:00,72.6,56.0,29.71,NNE,30,6.0,9.0,56,0.00,,CLR,0.00,VWS V14.01,2013-06-19 14:23:00,
2013-06-19 10:28:00,72.1,56.0,29.71,NNE,20,5.0,9.0,57,0.00,,CLR,0.00,VWS V14.01,2013-06-19 14:28:00,
2013-06-19 10:33:00,71.9,55.9,29.71,NE,45,2.0,9.0,57,0.00,,CLR,0.00,VWS V14.01,2013-06-19 14:33:00,
2013-06-19 10:38:00,71.8,55.8,29.71,NE,39,4.0,13.0,57,0.00,,CLR,0.00,VWS V14.01,2013-06-19 14:38:00,
2013-06-19 10:43:00,72.0,56.4,29.71,NE,46,2.0,13.0,58,0.00,,CLR,0.00,VWS V14.01,2013-06-19 14:43:00,
2013-06-19 10:48:00,72.6,57.0,29.72,NE,44,5.0,13.0,58,0.00,,CLR,0.00,VWS V14.01,2013-06-19 14:48:00,
2013-06-19 10:53:00,73.2,58.0,29.72,ESE,110,6.0,13.0,59,0.00,,CLR,0.00,VWS V14.01,2013-06-19 14:53:00,
2013-06-19 10:58:00,74.1,57.9,29.72,East,93,0.0,13.0,57,0.00,,CLR,0.00,VWS V14.01,2013-06-19 14:58:00,
2013-06-19 11:03:00,74.9,57.7,29.72,SE,131,1.0,6.0,55,0.00,,CLR,0.00,VWS V14.01,2013-06-19 15:03:00,
2013-06-19 11:08:00,75.1,58.3,29.72,South,171,0.0,7.0,56,0.00,,CLR,0.00,VWS V14.01,2013-06-19 15:08:00,
2013-06-19 11:14:00,75.5,57.7,29.72,NE,50,5.0,8.0,54,0.00,,CLR,0.00,VWS V14.01,2013-06-19 15:14:00,
2013-06-19 11:19:00,75.0,57.2,29.72,East,84,1.0,8.0,54,0.00,,CLR,0.00,VWS V14.01,2013-06-19 15:19:00,
2013-06-19 11:24:00,74.9,56.6,29.72,ENE,60,5.0,9.0,53,0.00,,CLR,0.00,VWS V14.01,2013-06-19 15:24:00,
2013-06-19 11:29:00,74.4,55.1,29.72,NE,48,7.0,10.0,51,0.00,,CLR,0.00,VWS V14.01,2013-06-19 15:29:00,
2013-06-19 11:34:00,74.4,55.1,29.72,ESE,117,3.0,6.0,51,0.00,,CLR,0.00,VWS V14.01,2013-06-19 15:34:00,
2013-06-19 11:39:00,74.7,54.3,29.72,NE,51,10.0,10.0,49,0.00,,CLR,0.34,VWS V14.01,2013-06-19 15:39:00,
2013-06-19 11:44:00,74.4,56.7,29.72,NE,39,1.0,10.0,54,0.00,,CLR,0.00,VWS V14.01,2013-06-19 15:44:00,
2013-06-19 11:49:00,74.8,55.5,29.72,NE,41,3.0,10.0,51,0.00,,CLR,0.00,VWS V14.01,2013-06-19 15:49:00,
2013-06-19 11:54:00,75.3,55.9,29.72,SE,136,3.0,10.0,51,0.00,,CLR,0.00,VWS V14.01,2013-06-19 15:54:00,
2013-06-19 11:59:00,75.9,56.0,29.72,NE,45,2.0,10.0,50,0.00,,CLR,0.00,VWS V14.01,2013-06-19 15:59:00,
2013-06-19 12:04:00,76.5,56.5,29.72,SE,146,1.0,6.0,50,0.00,,SCT047,0.00,VWS V14.01,2013-06-19 16:04:00,
2013-06-19 12:09:00,77.5,55.7,29.72,NE,45,5.0,6.0,47,0.00,,SCT047,0.00,VWS V14.01,2013-06-19 16:09:00,
2013-06-19 12:14:00,77.9,56.1,29.72,NNE,30,0.0,6.0,47,0.00,,SCT047,0.00,VWS V14.01,2013-06-19 16:14:00,
2013-06-19 12:19:00,78.5,56.0,29.72,NNW,328,4.0,6.0,46,0.00,,SCT047,0.00,VWS V14.01,2013-06-19 16:19:00,
2013-06-19 12:24:00,78.6,54.9,29.72,NE,54,0.0,6.0,44,0.00,,SCT047,0.00,VWS V14.01,2013-06-19 16:24:00,
2013-06-19 12:29:00,78.2,56.9,29.72,NE,54,0.0,6.0,48,0.00,,SCT047,0.00,VWS V14.01,2013-06-19 16:29:00,
2013-06-19 12:34:00,78.1,54.4,29.72,NNE,32,2.0,6.0,44,0.00,,SCT047,0.00,VWS V14.01,2013-06-19 16:34:00,
2013-06-19 12:39:00,78.0,54.3,29.72,East,91,4.0,7.0,44,0.00,,SCT047,0.00,VWS V14.01,2013-06-19 16:39:00,
2013-06-19 12:44:00,78.6,54.9,29.72,ENE,58,4.0,7.0,44,0.00,,SCT047,0.00,VWS V14.01,2013-06-19 16:44:00,
2013-06-19 12:49:00,78.6,56.7,29.72,NE,45,0.0,7.0,47,0.00,,SCT047,0.00,VWS V14.01,2013-06-19 16:49:00,
2013-06-19 12:54:00,78.6,55.5,29.72,NNW,341,0.0,7.0,45,0.00,,SCT047,0.00,VWS V14.01,2013-06-19 16:54:00,
2013-06-19 12:59:00,79.5,58.1,29.72,NNW,339,5.0,7.0,48,0.00,,SCT047,0.00,VWS V14.01,2013-06-19 16:59:00,
2013-06-19 13:04:00,-25.8,-25.8,65.27,NNW,339,2.0,254.0,100,99.99,,SCT047,99.99,VWS V14.01,2013-06-19 17:04:00,